Regional Weather Roundup
Issued by NWS

Home | Current Version | Previous Version | Text Only | Print | Product List | Glossary Off
Versions: 1 2 3 4 5 6 7 8 9 10 11 12 13 14 15 16 17 18 19 20 21 22 23 24 25 26 27 28 29 30 31 32 33 34 35 36 37 38 39 40 41 42 43 44 45 46 47 48 49 50

000
ASUS43 KIND 011309
RWRIN

WEATHER ROUNDUP FOR INDIANA
NATIONAL WEATHER SERVICE INDIANAPOLIS IN
900 AM EDT WED OCT 01 2014

NOTE: "FAIR" INDICATES FEW OR NO CLOUDS BELOW 12,000 FEET WITH NO
SIGNIFICANT WEATHER AND/OR OBSTRUCTIONS TO VISIBILITY.

* - STATION DOES NOT REPORT WEATHER SUCH AS PRECIPITATION OR FOG.

+ - STATION NOT QUALITY CONTROLLED BY THE NATIONAL WEATHER SERVICE.
    USE DATA WITH CAUTION...ESPECIALLY DEWPOINT AND RELATIVE
    HUMIDITY OBSERVATIONS.

INZ001>003-010>013-019-020-011400-
NORTHWEST INDIANA

CITY           SKY/WX    TMP DP  RH WIND       PRES   REMARKS
GARY /AIRPORT/ MOSUNNY   50  48  93 SE6       30.03S
KNOX *+        SUNNY     45  43  94 CALM      30.02S
LA PORTE +     SUNNY     52  52 100 SE5       30.04R
MICHIGAN CITY+ PTSUNNY   50  50 100 CALM      30.04R
MONTICELLO +   CLOUDY    47  46  99 E3        30.02R FOG
RENSSELAER +   SUNNY     46  46 100 E6        30.03R
VALPARAISO     SUNNY     48  46  93 E6        30.03S

$$

LMZ046-743>745-011400-
SOUTHERN LAKE MICHIGAN

STATION/POSITION TIME  TEMP WIND        PRES
                       AIR  DIR/SP/G
                 (UTC) (F)  (DEG/KT/KT) (MB)
MICHIGAN CITY    1200   53   80/  4/  4   N/A

$$

INZ004-005-014>016-021>024-011400-
NORTH CENTRAL INDIANA

CITY           SKY/WX    TMP DP  RH WIND       PRES   REMARKS
ELKHART        SUNNY     54  48  82 SE7       30.05R
LOGANSPORT +   FOG       46  45  93 E7        30.04R VSB 1/4
PERU/GRISSOM   FOG       48  48 100 E6        30.03R VSB 1/2
ROCHESTER +      N/A     50  50 100 E5        30.04S FOG
SOUTH BEND     CLOUDY    55  48  76 S8        30.05
WARSAW +       CLOUDY    46  46 100 CALM      30.04S FOG

$$

INZ006>009-017-018-025>027-011400-
NORTHEAST INDIANA

CITY           SKY/WX    TMP DP  RH WIND       PRES   REMARKS
ANGOLA *+      SUNNY     52  46  82 CALM      30.05R
AUBURN +         N/A     46  45  93 CALM      30.06R FOG
FORT WAYNE     MOSUNNY   51  49  92 E6        30.05S
HUNTINGTON +   FOG       48  48 100 SE6       30.04S VSB 3/4

$$

INZ028-029-035-036-043>045-051>053-011400-
WEST CENTRAL INDIANA

CITY           SKY/WX    TMP DP  RH WIND       PRES   REMARKS
CRAWFORDSVL +    N/A     50  46  87 E7        30.00F
GREENCASTLE +  SUNNY     50  46  87 E6        30.01S
LAFAYETTE      SUNNY     48  46  93 E7        30.01S
TERRE HAUTE    SUNNY     53  49  86 E5        29.99S

$$

INZ030>032-037>040-046>048-054>057-064-065-011400-
CENTRAL INDIANA

CITY           SKY/WX    TMP DP  RH WIND       PRES   REMARKS
ANDERSON       FOG       46  46 100 CALM      30.04  VSB 1/4
CP ATTERBURY + SUNNY     48  46  93 CALM      30.03R
FRANKFORT +    SUNNY    N/A N/A N/A E5        30.03S
INDIANAPOLIS   MOSUNNY   51  46  83 E7        30.02R
-EAGLE CREEK   SUNNY     50  46  86 E5        30.02R
KOKOMO *+      CLOUDY    48  45  87 SE7       30.04S VSB 1/4
MARION +       CLOUDY    49  49  99 E7        30.04S FOG
MT COMFORT *+  SUNNY     46 N/A N/A CALM      30.03S
SHELBYVILLE    SUNNY     50  47  89 E5        30.02R
ZIONSVILLE +   SUNNY     48  46  91 E3        30.03S

$$

INZ033-034-041-042-049-050-058-059-011400-
EAST CENTRAL INDIANA

CITY           SKY/WX    TMP DP  RH WIND       PRES   REMARKS
MUNCIE         FOG       49  49 100 SE6       30.04R VSB 1/4

$$

INZ060-061-067>069-081>083-085>088-011400-
SOUTHWEST INDIANA

CITY           SKY/WX    TMP DP  RH WIND       PRES   REMARKS
EVANSVILLE     SUNNY     61  58  90 E3        29.97R FOG
WASHINGTON +   SUNNY     56  56  97 E3        29.97S

$$

INZ062-063-066-070>080-084-089>092-011400-
SOUTH CENTRAL AND SOUTHEAST INDIANA

CITY           SKY/WX    TMP DP  RH WIND       PRES   REMARKS
BEDFORD +      SUNNY     54  50  87 E5        30.00
BLOOMINGTON    MOSUNNY   54  49  83 E6        30.00S
NORTH VERNON + SUNNY     52  52 100 NE5       30.02R FOG

$$



USA.gov is the U.S. government's official web portal to all federal, state and local government web resources and services.